SL-8 DEB

Satellite information

Favourite Embed

Satellite Type and Status

DEBRISIN ORBIT

Key statistics

Satellite SL-8 DEB at a glance.

Uptime

15711

Days in orbit

Revolutions

≈ 13.8

Per day

Orbit

LEO

Low Earth Orbit

Inclination

83.0

Latest

Satellite identification and parameters

Extended collection of information and parameters for SL-8 DEB.

Object identification

Identified? True

Debris? True

Object name: SL-8 DEB

International designator: 1982-102C

Object number (NORAD): 37632

Object ID (CCSDS): 37632

Country: COMMONWEALTH OF INDEPENDENT STATES (CIS)

Current information (Y/N): Y

RCS size: SMALL

Orbital parameters

Period: 104.3 minutes

Inclination: 82.9671 deg

SMA: 7339.765 km

Apoapsis: 984.631 km

Periapsis: 938.628 km

RAAN: 27.4188 deg

Eccentricy: 0.0031338

Argument of periapsis: 186.101 deg

Mean anomaly: 173.9773 deg

Mean motion: 13.80637198 rev/day

Mean motion (dot): 0.00000713 rev/day2

B* drag term: 0.00066266 1/REarth

Two-line elements (TLE)

Creation date: Oct. 23, 2025, 9:56 p.m.

Reference frame: TEME

Reference center: EARTH

Epoch: Oct. 23, 2025, 12:35 p.m. UTC

TLE line 0: 0 SL-8 DEB

TLE line 1: 1 37632U 82102C 25296.52440199 .00000713 00000-0 66266-3 0 9992

TLE line 2: 2 37632 82.9671 27.4188 0031338 186.1010 173.9773 13.80637198553209

Live tracking on map

Real-time ground track for satellite SL-8 DEB.

In-orbit conjunctions

A list of the most updated potential collisions computed for object SL-8 DEB.

Target Orbit TCA Probability of collision Miss distance Type
SL-8 R/B LEO 2025-03-15 22:30:50 0.0001007676 397.0 (m) ROCKET BODY
CALSPHERE 1 SSO 2024-12-16 09:15:16 0.0005285736 224.0 (m) PAYLOAD
EPSILON R/B LEO 2024-11-03 17:42:08 0.0001984681 394.0 (m) ROCKET BODY
COSMOS 2123 LEO 2024-08-29 22:10:37 0.0002362083 255.0 (m) PAYLOAD

Associated space launch

Navigation satellite providing location information for the Tsiklon-B navigation system

SL-8 DEB was lifted into orbit during the mission ‘Kosmos-3M | Parus 35’, on board a Kosmos-3M space rocket.

The launch took place on Oct. 19, 1982, 5:58 a.m. from 132/1 (132L).

For more information about the launch, click the button.

Launch to space Kosmos-3M | Parus 35
Kosmos-3M | Parus 35

Agency: N/A

Status: Launch Successful

Launch date: Oct. 19, 1982, 5:58 a.m. UTC

Rocket: Kosmos-3M

Launch pad: 132/1 (132L)

Location: Plesetsk Cosmodrome, Russian Federation

...

Latest news about this satellite

There are no fresh news available about this satellite. Check back as we update our databases every day.


Newsletter sign-up

Weekly statistics, charts and insights to help you stay on top of the space industry.